Weather History for Pinedale, WY

Change the Weather History Date:

Friday, January 11, 2013

  Actual Average (KBPI) Record (KBPI)
Temperature  
Mean Temperature 12 °F 11 °F  
Max Temperature 23 °F 26 °F 46 °F (1999)
Min Temperature 0 °F -4 °F -26 °F (2011)
Degree Days  
Heating Degree Days 53 54  
Month to date heating degree days 594  
Since 1 July heating degree days 5033  
Cooling Degree Days 0 0  
Month to date cooling degree days 0  
Year to date cooling degree days 0  
Moisture  
Dew Point 8 °F    
Average Humidity 84    
Maximum Humidity 100    
Minimum Humidity 67    
Precipitation  
Precipitation 0.00 in 0.01 in 0.32 in (2005)
Month to date precipitation 0.12  
Year to date precipitation 0.12  
Sea Level Pressure  
Sea Level Pressure 29.49 in    
Wind  
Wind Speed 16 mph (WNW)    
Max Wind Speed 29 mph    
Max Gust Speed 36 mph    
Visibility 5 miles    
Events Snow    
T = Trace of Precipitation, MM = Missing Value Source: NWS Daily Summary

Daily Weather History Graph

Daily Weather History Graph

Search for Another Location

Airport:

Trip Planner

Search our weather history database for the weather conditions in past years. The results will help you decide how hot, cold, wet, or windy it might be!

Date:

Astronomy

Jan. 11, 2013 Rise Set
Actual Time 7:48 AM MST 5:06 PM MST
Civil Twilight 7:17 AM MST 5:37 PM MST
Nautical Twilight 6:41 AM MST 6:13 PM MST
Astronomical Twilight 6:07 AM MST 6:47 PM MST
Moon 7:23 AM MST (1/11) 5:29 PM MST (1/11)
Length of Visible Light 10h 20m
Length of Day
9h 17m
Waning Crescent, 0% of the Moon is Illuminated
Jan 11
Waning Crescent
Jan 11
New
Jan 18
First Quarter
Jan 26
Full
Feb 3
Last Quarter

Hourly Weather History & Observations

Time (MST) Temp. Windchill Dew Point Humidity Pressure Visibility Wind Dir Wind Speed Gust Speed Precip Events Conditions
12:15 AM 23.0 °F 13.9 °F 23.0 °F 100% 29.36 in 1.0 mi ESE 8.1 mph - N/A Snow Snow
12:35 AM 19.4 °F 6.0 °F 19.4 °F 100% 29.38 in 0.5 mi WNW 13.8 mph 21.9 mph N/A Snow Heavy Snow
12:55 AM 19.4 °F 5.5 °F 17.6 °F 93% 29.37 in 1.0 mi WNW 15.0 mph - N/A Snow Light Snow
1:15 AM 19.4 °F 6.6 °F 17.6 °F 93% 29.35 in 1.8 mi NW 12.7 mph - N/A Snow Light Snow
1:35 AM 19.4 °F 5.0 °F 17.6 °F 93% 29.36 in 7.0 mi West 16.1 mph 19.6 mph N/A   Overcast
1:55 AM 19.4 °F 7.9 °F 15.8 °F 86% 29.35 in 10.0 mi WNW 10.4 mph - N/A   Overcast
2:15 AM 17.6 °F 2.7 °F 14.0 °F 86% 29.36 in 10.0 mi West 16.1 mph - N/A   Overcast
2:35 AM 17.6 °F 0.9 °F 12.2 °F 79% 29.36 in 10.0 mi West 20.7 mph 25.3 mph N/A   Overcast
2:55 AM 15.8 °F -1.1 °F 12.2 °F 86% 29.35 in 10.0 mi WNW 19.6 mph 24.2 mph N/A   Overcast
3:15 AM 15.8 °F 0.3 °F 10.4 °F 79% 29.35 in 10.0 mi West 16.1 mph 21.9 mph N/A   Overcast
3:35 AM 14.0 °F -3.0 °F 8.6 °F 79% 29.35 in 10.0 mi WNW 18.4 mph - N/A   Overcast
3:55 AM 14.0 °F -2.5 °F 10.4 °F 86% 29.35 in 10.0 mi WNW 17.3 mph - N/A   Overcast
4:15 AM 14.0 °F -4.3 °F 10.4 °F 86% 29.34 in 7.0 mi WNW 21.9 mph 25.3 mph N/A   Overcast
4:35 AM 14.0 °F -3.0 °F 10.4 °F 86% 29.35 in 3.0 mi WNW 18.4 mph 26.5 mph N/A Snow Light Snow
4:55 AM 14.0 °F -3.4 °F 10.4 °F 86% 29.34 in 2.0 mi WNW 19.6 mph 26.5 mph N/A Snow Light Snow
5:15 AM 14.0 °F -4.7 °F 10.4 °F 86% 29.32 in 1.5 mi WNW 23.0 mph - N/A Snow Light Snow
5:35 AM 12.2 °F -6.7 °F 10.4 °F 92% 29.32 in 2.0 mi WNW 21.9 mph 27.6 mph N/A Snow Light Snow
5:55 AM 12.2 °F -7.9 °F 10.4 °F 92% 29.31 in 1.8 mi WNW 25.3 mph 34.5 mph N/A Snow Light Snow
6:15 AM 12.2 °F -8.6 °F 10.4 °F 92% 29.30 in 1.8 mi WNW 27.6 mph 31.1 mph N/A Snow Light Snow
6:35 AM 12.2 °F -8.9 °F 10.4 °F 92% 29.31 in 1.0 mi WNW 28.8 mph 33.4 mph N/A Snow Light Snow
6:55 AM 12.2 °F -8.2 °F 10.4 °F 92% 29.32 in 1.2 mi WNW 26.5 mph 34.5 mph N/A Snow Light Snow
7:15 AM 12.2 °F -8.6 °F 10.4 °F 92% 29.33 in 1.0 mi WNW 27.6 mph 32.2 mph N/A Snow Light Snow
7:35 AM 12.2 °F -6.7 °F 10.4 °F 92% 29.35 in 1.0 mi WNW 21.9 mph 28.8 mph N/A Snow Light Snow
7:55 AM 12.2 °F -5.3 °F 10.4 °F 92% 29.36 in 0.5 mi WNW 18.4 mph 28.8 mph N/A Snow Light Snow
8:35 AM 12.2 °F -7.1 °F 10.4 °F 92% 29.39 in 0.5 mi WNW 23.0 mph 31.1 mph N/A Snow Light Snow
8:55 AM 12.2 °F -8.2 °F 10.4 °F 92% 29.40 in 0.5 mi WNW 26.5 mph 32.2 mph N/A Snow Snow
9:15 AM 12.2 °F -8.6 °F 10.4 °F 92% 29.41 in 0.2 mi WNW 27.6 mph 33.4 mph N/A Snow Snow
9:35 AM 12.2 °F -7.9 °F 10.4 °F 92% 29.41 in 0.2 mi WNW 25.3 mph 35.7 mph N/A Snow Snow
9:55 AM 12.2 °F -8.6 °F 10.4 °F 92% 29.43 in 0.5 mi WNW 27.6 mph 33.4 mph N/A Snow Light Snow
10:15 AM 12.2 °F -7.9 °F 8.6 °F 85% 29.45 in 0.8 mi WNW 25.3 mph 29.9 mph N/A Snow Light Snow
10:35 AM 12.2 °F -7.5 °F 8.6 °F 85% 29.45 in 0.5 mi WNW 24.2 mph 31.1 mph N/A Snow Light Snow
10:55 AM 12.2 °F -7.5 °F 10.4 °F 92% 29.46 in 0.8 mi WNW 24.2 mph 29.9 mph N/A Snow Light Snow
11:15 AM 12.2 °F -7.9 °F 10.4 °F 92% 29.47 in 1.0 mi WNW 25.3 mph 29.9 mph N/A Snow Light Snow
11:35 AM 12.2 °F -7.5 °F 10.4 °F 92% 29.47 in 1.0 mi WNW 24.2 mph 27.6 mph N/A Snow Light Snow
11:55 AM 12.2 °F -5.3 °F 8.6 °F 85% 29.48 in 1.2 mi WNW 18.4 mph - N/A Snow Light Snow
12:15 PM 12.2 °F -6.7 °F 8.6 °F 85% 29.48 in 1.5 mi WNW 21.9 mph - N/A Snow Light Snow
12:35 PM 12.2 °F -6.7 °F 8.6 °F 85% 29.48 in 1.5 mi WNW 21.9 mph 26.5 mph N/A Snow Light Snow
1:15 PM 12.2 °F -6.3 °F 8.6 °F 85% 29.49 in 1.8 mi WNW 20.7 mph - N/A Snow Light Snow
1:35 PM 12.2 °F -5.8 °F 6.8 °F 79% 29.49 in 3.0 mi WNW 19.6 mph - N/A   Haze
1:55 PM 14.0 °F -2.0 °F 6.8 °F 73% 29.49 in 3.0 mi WNW 16.1 mph 26.5 mph N/A   Haze
2:15 PM 14.0 °F -3.4 °F 5.0 °F 67% 29.50 in 7.0 mi WNW 19.6 mph - N/A   Overcast
2:35 PM 14.0 °F -3.0 °F 5.0 °F 67% 29.51 in 10.0 mi West 18.4 mph 24.2 mph N/A   Overcast
2:55 PM 14.0 °F -2.0 °F 5.0 °F 67% 29.53 in 10.0 mi WNW 16.1 mph - N/A   Overcast
3:15 PM 14.0 °F -2.0 °F 5.0 °F 67% 29.55 in 10.0 mi WNW 16.1 mph 20.7 mph N/A   Mostly Cloudy
3:35 PM 14.0 °F -0.8 °F 5.0 °F 67% 29.56 in 10.0 mi West 13.8 mph - N/A   Overcast
3:55 PM 12.2 °F -2.5 °F 5.0 °F 73% 29.57 in 10.0 mi West 12.7 mph - N/A   Overcast
4:15 PM 12.2 °F -3.1 °F 3.2 °F 67% 29.58 in 10.0 mi West 13.8 mph - N/A   Overcast
4:35 PM 12.2 °F -3.7 °F 3.2 °F 67% 29.59 in 10.0 mi West 15.0 mph - N/A   Overcast
4:55 PM 10.4 °F -4.8 °F 3.2 °F 73% 29.59 in 10.0 mi West 12.7 mph - N/A   Overcast
5:15 PM 10.4 °F -4.8 °F 3.2 °F 73% 29.61 in 10.0 mi West 12.7 mph - N/A   Overcast
5:35 PM 10.4 °F -5.4 °F 3.2 °F 73% 29.61 in 10.0 mi West 13.8 mph - N/A   Overcast
5:55 PM 10.4 °F -4.8 °F 3.2 °F 73% 29.62 in 10.0 mi West 12.7 mph - N/A   Overcast
6:15 PM 8.6 °F -3.7 °F 3.2 °F 79% 29.64 in 10.0 mi West 8.1 mph - N/A   Overcast
6:35 PM 8.6 °F -3.7 °F 3.2 °F 79% 29.65 in 10.0 mi West 8.1 mph - N/A   Overcast
6:55 PM 8.6 °F -1.3 °F 3.2 °F 79% 29.66 in 10.0 mi West 5.8 mph - N/A   Overcast
7:15 PM 8.6 °F -3.7 °F 3.2 °F 79% 29.67 in 10.0 mi West 8.1 mph - N/A   Overcast
7:35 PM 8.6 °F -3.7 °F 3.2 °F 79% 29.67 in 10.0 mi West 8.1 mph - N/A   Overcast
7:55 PM 8.6 °F -1.3 °F 3.2 °F 79% 29.69 in 10.0 mi WNW 5.8 mph - N/A   Overcast
8:15 PM 8.6 °F -1.3 °F 1.4 °F 73% 29.69 in 10.0 mi WNW 5.8 mph - N/A   Overcast
8:35 PM 6.8 °F -2.0 °F 1.4 °F 79% 29.69 in 10.0 mi WNW 4.6 mph - N/A   Overcast
8:55 PM 6.8 °F -0.1 °F 1.4 °F 79% 29.69 in 10.0 mi WNW 3.5 mph - N/A   Overcast
9:15 PM 5.0 °F - 1.4 °F 85% 29.70 in 10.0 mi Calm Calm - N/A   Overcast
9:35 PM 5.0 °F - 1.4 °F 85% 29.70 in 5.0 mi Calm Calm - N/A   Overcast
9:55 PM 5.0 °F - 1.4 °F 85% 29.71 in 2.5 mi Calm Calm - N/A Snow Light Snow
10:35 PM 5.0 °F - 3.2 °F 92% 29.72 in 2.5 mi Calm Calm - N/A Snow Light Snow
10:55 PM 3.2 °F -6.2 °F 1.4 °F 92% 29.72 in 4.0 mi West 4.6 mph - N/A Snow Light Snow
11:15 PM 1.4 °F -9.9 °F -0.4 °F 92% 29.73 in 4.0 mi West 5.8 mph - N/A Snow Light Snow
11:35 PM 1.4 °F -8.3 °F -0.4 °F 92% 29.74 in 4.0 mi West 4.6 mph - N/A Snow Light Snow
11:55 PM -0.4 °F -8.3 °F -4.0 °F 85% 29.75 in 7.0 mi WNW 3.5 mph - N/A   Scattered Clouds